Погода в Георгиевске

Погода в Георгиевске : погода сейчас, прогноз погоды и архив. Всё, что Вы хотите узнать о погоде в Георгиевске!

Поиск расширенной информации на нашем сайте:

Другие новости

Новости СМИ2

Главная страница сайта

Новости сайта

03.07.2017

Напоминаем, что на нашем специализированном сайте Метеоцентр.Азия вы можете получить высокодетализированные автоматические прогнозы погоды по пунктам России, СНГ и мира в авиационном формате (включающие направление и скорость ветра, видимость, явления погоды, количество и форму облачности, нижнюю и верхнюю границу облачности).


Погода в Георгиевске - сегодня

Время (UTC), дата Ветер
(°,м/с) 
Видим.   Явления Облачность Т
(°С)
Тd
(°С)
f(%) Тe
(°С)
Pmin
(гПа)
dP
(гПа)
Po
(мм)
O2
(г/м3)
Тmin Tmax R s Состояние
почвы
06 19.09.17 280 (З) 20000 м    ясно 
+27.4 +13.7 43 +34  1012.8  0.5  735  266           
09 19.09.17 290 (З) 20000 м    ясно 
+32.7 +12.6 29 +38  1011.4  -0.8  734  262           
12 19.09.17 010 (С) 20000 м    ясно 
+35.2 +10.3 22 +37  1010.2  -0.9  734  260           
15 19.09.17 тихо ()   20000 м    ясно 
+28.9 +13.2 38 +35  1011.6  0.6  734  265    +35.3       
18 19.09.17 290 (З) 20000 м    ясно 
+22.6 +12.7 54 +28  1013.3  735  271           
21 19.09.17 270 (З) 20000 м    ясно 
+20 +10.7 55 +23  1013.4  -0.3  735  274           
00 20.09.17 тихо ()   20000 м    ясно 
+18.3 +10.8 62 +21  1013.6  735  275           
03 20.09.17 260 (З) 20000 м    ясно 
+17.3 +11.2 67 +22  1014.5  0.8  735  276  +16.8        сухая 
06 20.09.17 тихо ()   20000 м    ясно 
+26.6 +11.3 38 +30  1014  0.5  736  268           
09 20.09.17 тихо ()   20000 м    ясно 
+32.8 +10.8 26 +35  1012.3  -1  735  262           
12 20.09.17 060 (СВ) 20000 м    ясно 
+34.5 +9.3 21 +35  1011.1  -0.9  734  261           
15 20.09.17 тихо ()   20000 м    10/0 верхняя 
[Cs]
+27.7 +12.8 40 +33  1012  0.2  734  266    +34.7       
18 20.09.17 240 (ЮЗ) 20000 м    ясно 
+21.9 +13.2 58 +28  1013.2  0.5  735  271           
21 20.09.17 тихо ()   20000 м    ясно 
+18.5 +11.7 65 +22  1013.2  -0.4  734  275           
00 21.09.17 290 (З) 20000 м    ясно 
+16.4 +10.7 69 +21  1013.4  0.1  734  277           
03 21.09.17 тихо ()   20000 м    ясно 
+14.6 +10.2 75 +16  1014  0.4  735  279  +14.6        сухая 
06 21.09.17 тихо ()   20000 м    ясно 
+25 +11 41 +28  1012.8  735  269           
09 21.09.17 080 (В) 20000 м    ясно 
+32.3 +10.9 27 +35  1010.8  -1.2  734  262           
12 21.09.17 070 (В) 20000 м    ясно 
+32.8 +8.1 22 +33  1009.4  -1.3  733  262           
15 21.09.17 080 (В) 20000 м    ясно 
+28.9 +12.5 36 +34  1009.4  -0.3  732  265    +33.7       
18 21.09.17 тихо ()   20000 м    ясно 
+24 +6.1 32 +24  1010.8  0.7  733  270           
21 21.09.17 тихо ()   20000 м    ясно 
+20.6 +11.5 56 +24  1011  0.1  733  272           
00 22.09.17 тихо ()   20000 м    10/0 средняя 
[Ac und]
+19.1 +14.9 77 +28  1010.6  -0.5  733  273           
03 22.09.17 тихо ()   20000 м    10/10 1000 м 
[Sc]
+19.3 +16 81 +30  1010.5  -0.1  732  272  +17.7        сухая 
06 22.09.17 080 (В) 20000 м    10/10 1000 м 
[Sc]
+20.8 +17.1 79 +34  1010.7  0.4  733  271           
Время (UTC), дата Ветер
(°,м/с) 
Видим.   Явления Облачность Т
(°С)
Тd
(°С)
f(%) Тe
(°С)
Pmin
(гПа)
dP
(гПа)
Po
(мм)
O2
(г/м3)
Тmin Tmax R s Состояние
почвы

Для получения пояснительной информации подведите курсор к названию столбца.

ПОГОДА в Георгиевске - архив

Всё, что Вы хотите узнать о погоде в Георгиевске - удобно и подробно!

Выберите нужную дату (начиная с 1 января 2015* года) и нажмите кнопку "Найти".
Будут отображены архивные сводки погоды по пункту Георгиевск, начиная с указанной даты.


Отображать данные в формате CSV (для использования в таблицах Excel)


Внимание! Наш архив погоды предназначен исключительно для личного некоммерческого использования в познавательных целях. Если Вам необходимы официальные справки о состоянии погоды (для производственных, юридических, коммерческих и т.п. целей), обращайтесь в органы Росгидромета.

*Примечание: данная дата относится к архиву по метеостанциям СССР (Россия, СНГ, Балтия).
Архив по метеостанциям Зарубежной Европы и Азии (кроме Китая) хранится 10 дней, по другим регионам земного шара (Китай, Африка, Америка, Австралия, Океания) - 1 день.

Георгиевск - район местоположения метеостанции


Название, широта, долгота, высота метеостанции:
Георгиевск 44.2°ш. 43.5°д. 302 м над ур. моря [Российская Федерация]

Дополнительная информация

В oтличие oт бoльшинства пoгoдных сайтoв мы публикуем пoдрoбную метеoинфoрмацию в детальнoм прoфессиoнальнoм фoрмате.

Характеристики температуры и влажнoсти вoздуха измеряются на высoте 2 м в тени вдали oт зданий и деревьев.
Скoрoсть ветра измеряется на высoте 10 м (на урoвне рoста челoвека скoрoсть ветра ниже в 1.5-2 раза). Если метеoстанция нахoдится в гoрoде или в лесу, тo скoрoсть ветра занижена на 2-4 м/с пo сравнению с oткрытым местoм. Скoрoсть ветра над акватoриями крупных рек и oзёр, а также на вершинах хoлмoв на 2-5 м/с выше, чем в oбычных услoвиях.
Атмoсфернoе давление в разных тoчках местнoсти мoжет значительнo oтличаться oт давления на метеoстанции, в зависимoсти oт услoвий рельефа (при пoдъёме на 10 м давление пoнижается примернo на 1 мм рт.ст.).